Time,TemperatureF,DewpointF,PressureIn,WindDirection,WindDirectionDegrees,WindSpeedMPH,WindSpeedGustMPH,Humidity,HourlyPrecipIn,Conditions,Clouds,dailyrainin,SolarRadiationWatts/m^2,SoftwareType,DateUTC
2013-10-14 00:02:00,75.0,42.3,-100.00,NNW,336,0.0,-999.0,31,-99.99,,,-99.99,0.0,meteohub,2013-10-14 04:02:00,
2013-10-14 00:07:00,75.0,41.5,-100.00,NNW,336,0.0,-999.0,30,-99.99,,,-99.99,0.0,meteohub,2013-10-14 04:07:00,
2013-10-14 00:12:00,75.2,39.9,-100.00,NNW,336,0.0,-999.0,28,-99.99,,,-99.99,0.0,meteohub,2013-10-14 04:12:00,
2013-10-14 00:17:00,75.2,39.9,-100.00,NNW,336,0.0,-999.0,28,-99.99,,,0.00,0.0,meteohub,2013-10-14 04:17:00,
2013-10-14 00:22:00,75.2,38.8,-100.00,NNW,336,0.0,-999.0,27,-99.99,,,0.00,0.0,meteohub,2013-10-14 04:22:00,
2013-10-14 00:27:00,75.4,38.1,-100.00,NNW,336,0.0,-999.0,26,-99.99,,,0.00,0.0,meteohub,2013-10-14 04:27:00,
2013-10-14 00:32:00,75.4,37.0,-100.00,NNW,336,0.0,-999.0,25,-99.99,,,0.00,0.0,meteohub,2013-10-14 04:32:00,
2013-10-14 00:37:00,75.4,36.1,-100.00,NNW,336,0.0,-999.0,24,-99.99,,,0.00,0.0,meteohub,2013-10-14 04:37:00,
2013-10-14 00:42:00,75.6,34.0,-100.00,NNW,336,0.0,-999.0,22,-99.99,,,0.00,0.0,meteohub,2013-10-14 04:42:00,
2013-10-14 00:47:00,75.6,32.9,-100.00,NNW,336,0.0,-999.0,21,-99.99,,,0.00,0.0,meteohub,2013-10-14 04:47:00,
2013-10-14 00:57:00,75.9,29.3,-100.00,NNW,336,0.0,-999.0,18,-99.99,,,0.00,0.0,meteohub,2013-10-14 04:57:00,
2013-10-14 01:02:00,76.5,29.8,-100.00,NW,306,0.0,-999.0,18,-99.99,,,0.00,0.0,meteohub,2013-10-14 05:02:00,
2013-10-14 01:07:00,76.6,30.0,-100.00,WNW,300,0.0,-999.0,18,-99.99,,,0.00,0.0,meteohub,2013-10-14 05:07:00,
2013-10-14 01:12:00,76.6,31.3,-100.00,WNW,300,0.0,-999.0,19,-99.99,,,0.00,0.0,meteohub,2013-10-14 05:12:00,
2013-10-14 01:17:00,76.5,32.4,-100.00,WNW,300,0.0,-999.0,20,-99.99,,,0.00,0.0,meteohub,2013-10-14 05:17:00,
2013-10-14 01:22:00,76.6,32.5,-100.00,WNW,300,0.0,-999.0,20,-99.99,,,0.00,0.0,meteohub,2013-10-14 05:22:00,
2013-10-14 01:27:00,76.8,34.0,-100.00,WNW,300,0.0,-999.0,21,-99.99,,,0.00,0.0,meteohub,2013-10-14 05:27:00,
2013-10-14 01:32:00,77.0,32.9,-100.00,WNW,300,0.0,-999.0,20,-99.99,,,0.00,0.0,meteohub,2013-10-14 05:32:00,
2013-10-14 01:37:00,77.2,33.1,-100.00,WNW,300,0.0,-999.0,20,-99.99,,,0.00,0.0,meteohub,2013-10-14 05:37:00,
2013-10-14 01:42:00,77.2,31.8,-100.00,WNW,300,0.0,-999.0,19,-99.99,,,0.00,0.0,meteohub,2013-10-14 05:42:00,
2013-10-14 01:47:00,77.2,30.4,-100.00,WNW,300,0.0,-999.0,18,-99.99,,,0.00,0.0,meteohub,2013-10-14 05:47:00,
2013-10-14 01:52:00,77.2,27.5,-100.00,WNW,300,0.0,-999.0,16,-99.99,,,0.00,0.0,meteohub,2013-10-14 05:52:00,
2013-10-14 01:57:00,77.2,25.9,-100.00,WNW,300,0.0,-999.0,15,-99.99,,,0.00,0.0,meteohub,2013-10-14 05:57:00,
2013-10-14 02:02:00,76.8,24.1,-100.00,WNW,300,0.0,-999.0,14,-99.99,,,0.00,0.0,meteohub,2013-10-14 06:02:00,
2013-10-14 02:12:00,76.6,23.9,-100.00,WNW,300,0.0,-999.0,14,-99.99,,,0.00,0.0,meteohub,2013-10-14 06:12:00,
2013-10-14 02:17:00,76.6,25.5,-100.00,WNW,300,0.0,-999.0,15,-99.99,,,0.00,0.0,meteohub,2013-10-14 06:17:00,
2013-10-14 02:22:00,76.5,25.3,-100.00,WNW,300,0.0,-999.0,15,-99.99,,,0.00,0.0,meteohub,2013-10-14 06:22:00,
2013-10-14 02:27:00,76.6,25.5,-100.00,WNW,300,0.0,-999.0,15,-99.99,,,0.00,0.0,meteohub,2013-10-14 06:27:00,
2013-10-14 02:32:00,76.6,25.5,-100.00,WNW,300,0.0,-999.0,15,-99.99,,,0.00,0.0,meteohub,2013-10-14 06:32:00,
2013-10-14 02:37:00,76.6,25.5,-100.00,WNW,300,0.0,-999.0,15,-99.99,,,0.00,0.0,meteohub,2013-10-14 06:37:00,
2013-10-14 02:42:00,76.6,23.9,-100.00,WNW,300,0.0,-999.0,14,-99.99,,,0.00,0.0,meteohub,2013-10-14 06:42:00,
2013-10-14 02:47:00,76.5,23.7,-100.00,WNW,300,0.0,-999.0,14,-99.99,,,0.00,0.0,meteohub,2013-10-14 06:47:00,
2013-10-14 02:52:00,76.5,23.7,-100.00,WNW,300,0.0,-999.0,14,-99.99,,,0.00,0.0,meteohub,2013-10-14 06:52:00,
2013-10-14 02:57:00,76.3,23.5,-100.00,ENE,78,0.0,-999.0,14,-99.99,,,0.00,0.0,meteohub,2013-10-14 06:57:00,
2013-10-14 03:02:00,76.3,32.2,-100.00,SSE,164,4.0,-999.0,20,-99.99,,,0.00,0.0,meteohub,2013-10-14 07:02:00,
2013-10-14 03:07:00,76.6,42.8,-100.00,South,175,0.0,-999.0,30,-99.99,,,0.00,0.0,meteohub,2013-10-14 07:07:00,
2013-10-14 03:12:00,76.8,47.8,-100.00,South,173,0.0,-999.0,36,-99.99,,,0.00,0.0,meteohub,2013-10-14 07:12:00,
2013-10-14 03:17:00,77.2,50.4,-100.00,South,170,0.0,-999.0,39,-99.99,,,0.00,0.0,meteohub,2013-10-14 07:17:00,
2013-10-14 03:22:00,77.4,51.1,-100.00,South,169,0.0,-999.0,40,-99.99,,,0.00,0.0,meteohub,2013-10-14 07:22:00,
2013-10-14 03:27:00,77.4,51.1,-100.00,South,170,0.0,-999.0,40,-99.99,,,0.00,0.0,meteohub,2013-10-14 07:27:00,
2013-10-14 03:32:00,77.2,50.4,-100.00,South,170,0.0,-999.0,39,-99.99,,,0.00,0.0,meteohub,2013-10-14 07:32:00,
2013-10-14 03:37:00,77.2,48.9,-100.00,SSE,156,2.0,-999.0,37,-99.99,,,0.00,0.0,meteohub,2013-10-14 07:37:00,
2013-10-14 03:42:00,77.2,48.9,-100.00,SSE,154,0.0,-999.0,37,-99.99,,,0.00,0.0,meteohub,2013-10-14 07:42:00,
2013-10-14 03:47:00,77.2,48.9,-100.00,SSE,153,0.0,-999.0,37,-99.99,,,0.00,0.0,meteohub,2013-10-14 07:47:00,
2013-10-14 03:52:00,77.2,49.6,-100.00,SSE,151,0.0,-999.0,38,-99.99,,,0.00,0.0,meteohub,2013-10-14 07:52:00,
2013-10-14 03:57:00,77.2,50.4,-100.00,SE,146,0.0,-999.0,39,-99.99,,,0.00,0.0,meteohub,2013-10-14 07:57:00,
2013-10-14 04:02:00,77.0,50.9,-100.00,SE,146,0.0,-999.0,40,-99.99,,,0.00,0.0,meteohub,2013-10-14 08:02:00,
2013-10-14 04:07:00,77.0,51.4,-100.00,SSE,148,0.0,-999.0,41,-99.99,,,0.00,0.0,meteohub,2013-10-14 08:07:00,
2013-10-14 04:12:00,77.0,52.2,-100.00,SSE,148,0.0,-999.0,42,-99.99,,,0.00,0.0,meteohub,2013-10-14 08:12:00,
2013-10-14 04:17:00,76.8,52.0,-100.00,SSE,148,0.0,-999.0,42,-99.99,,,0.00,0.0,meteohub,2013-10-14 08:17:00,
2013-10-14 04:22:00,76.8,52.0,-100.00,SSE,148,0.0,-999.0,42,-99.99,,,0.00,0.0,meteohub,2013-10-14 08:22:00,
2013-10-14 04:32:00,76.5,48.9,-100.00,SSE,148,0.0,-999.0,38,-99.99,,,0.00,0.0,meteohub,2013-10-14 08:32:00,
2013-10-14 04:37:00,76.6,46.9,-100.00,SE,146,0.0,-999.0,35,-99.99,,,0.00,0.0,meteohub,2013-10-14 08:37:00,
2013-10-14 04:42:00,77.4,33.1,-100.00,SE,146,0.0,-999.0,20,-99.99,,,0.00,0.0,meteohub,2013-10-14 08:42:00,
2013-10-14 04:47:00,77.2,30.4,-100.00,SSE,147,0.0,-999.0,18,-99.99,,,0.00,0.0,meteohub,2013-10-14 08:47:00,
2013-10-14 04:52:00,76.8,27.1,-100.00,SSE,147,0.0,-999.0,16,-99.99,,,0.00,0.0,meteohub,2013-10-14 08:52:00,
2013-10-14 04:57:00,76.5,23.7,-100.00,SE,146,0.0,-999.0,14,-99.99,,,0.00,0.0,meteohub,2013-10-14 08:57:00,
2013-10-14 05:02:00,76.3,21.7,-100.00,SE,146,0.0,-999.0,13,-99.99,,,0.00,0.0,meteohub,2013-10-14 09:02:00,
2013-10-14 05:07:00,75.9,21.6,-100.00,SSE,147,0.0,-999.0,13,-99.99,,,0.00,0.0,meteohub,2013-10-14 09:07:00,
2013-10-14 05:12:00,75.7,21.4,-100.00,SE,146,0.0,-999.0,13,-99.99,,,0.00,0.0,meteohub,2013-10-14 09:12:00,
2013-10-14 05:17:00,75.4,21.2,-100.00,SE,146,0.0,-999.0,13,-99.99,,,0.00,0.0,meteohub,2013-10-14 09:17:00,
2013-10-14 05:22:00,75.0,22.6,-100.00,SSE,147,0.0,-999.0,14,-99.99,,,0.00,0.0,meteohub,2013-10-14 09:22:00,
2013-10-14 05:32:00,74.7,22.3,-100.00,SSE,147,0.0,-999.0,14,-99.99,,,0.00,0.0,meteohub,2013-10-14 09:32:00,
2013-10-14 05:37:00,74.5,23.7,-100.00,SE,146,0.0,-999.0,15,-99.99,,,0.00,0.0,meteohub,2013-10-14 09:37:00,
2013-10-14 05:42:00,74.3,23.7,-100.00,SSE,147,0.0,-999.0,15,-99.99,,,0.00,0.0,meteohub,2013-10-14 09:42:00,
2013-10-14 05:47:00,74.1,23.5,-100.00,SSE,147,0.0,-999.0,15,-99.99,,,0.00,0.0,meteohub,2013-10-14 09:47:00,
2013-10-14 05:52:00,73.9,23.4,-100.00,SE,146,0.0,-999.0,15,-99.99,,,0.00,0.0,meteohub,2013-10-14 09:52:00,
2013-10-14 05:57:00,73.9,23.4,-100.00,SE,146,0.0,-999.0,15,-99.99,,,0.00,0.0,meteohub,2013-10-14 09:57:00,
2013-10-14 06:02:00,73.9,23.4,-100.00,SSE,147,0.0,-999.0,15,-99.99,,,0.00,0.0,meteohub,2013-10-14 10:02:00,
2013-10-14 06:07:00,73.8,23.2,-100.00,SSE,147,0.0,-999.0,15,-99.99,,,0.00,0.0,meteohub,2013-10-14 10:07:00,
2013-10-14 06:12:00,73.8,24.8,-100.00,SSE,147,0.0,-999.0,16,-99.99,,,0.00,0.0,meteohub,2013-10-14 10:12:00,
2013-10-14 06:17:00,73.8,24.8,-100.00,SSE,147,0.0,-999.0,16,-99.99,,,-99.99,0.0,meteohub,2013-10-14 10:17:00,
2013-10-14 06:22:00,73.8,24.8,-100.00,SSE,147,0.0,-999.0,16,-99.99,,,-99.99,0.0,meteohub,2013-10-14 10:22:00,
2013-10-14 06:27:00,73.6,24.6,-100.00,SE,146,0.0,-999.0,16,-99.99,,,-99.99,0.0,meteohub,2013-10-14 10:27:00,
2013-10-14 06:32:00,73.6,24.6,-100.00,SE,146,0.0,-999.0,16,-99.99,,,-99.99,0.0,meteohub,2013-10-14 10:32:00,
2013-10-14 06:37:00,73.6,24.6,-100.00,SSE,147,0.0,-999.0,16,-99.99,,,-99.99,0.0,meteohub,2013-10-14 10:37:00,
2013-10-14 06:42:00,73.4,24.4,-100.00,SSE,147,0.0,-999.0,16,-99.99,,,-99.99,0.0,meteohub,2013-10-14 10:42:00,
2013-10-14 06:47:00,73.2,24.3,-100.00,SE,146,0.0,-999.0,16,-99.99,,,-99.99,0.0,meteohub,2013-10-14 10:47:00,
2013-10-14 06:52:00,73.0,24.3,-100.00,SE,146,0.0,-999.0,16,-99.99,,,-99.99,0.0,meteohub,2013-10-14 10:52:00,
2013-10-14 06:57:00,73.2,24.3,-100.00,SSE,147,0.0,-999.0,16,-99.99,,,-99.99,0.0,meteohub,2013-10-14 10:57:00,
2013-10-14 07:02:00,73.0,24.3,-100.00,SSE,147,0.0,-999.0,16,-99.99,,,-99.99,0.0,meteohub,2013-10-14 11:02:00,
2013-10-14 07:07:00,73.0,24.3,-100.00,SSE,147,0.0,-999.0,16,-99.99,,,-99.99,0.0,meteohub,2013-10-14 11:07:00,
2013-10-14 07:12:00,73.0,24.3,-100.00,SE,146,2.0,-999.0,16,-99.99,,,-99.99,0.0,meteohub,2013-10-14 11:12:00,
2013-10-14 07:17:00,72.9,24.1,-100.00,SSE,147,0.0,-999.0,16,-99.99,,,-99.99,0.0,meteohub,2013-10-14 11:17:00,
2013-10-14 07:22:00,72.9,24.1,-100.00,SSE,147,0.0,-999.0,16,-99.99,,,-99.99,5.0,meteohub,2013-10-14 11:22:00,
2013-10-14 07:27:00,72.9,24.1,-100.00,SE,146,4.0,-999.0,16,-99.99,,,-99.99,7.0,meteohub,2013-10-14 11:27:00,
2013-10-14 07:32:00,72.9,24.1,-100.00,East,86,0.0,-999.0,16,-99.99,,,-99.99,12.0,meteohub,2013-10-14 11:32:00,
2013-10-14 07:37:00,73.0,24.3,-100.00,East,86,2.0,-999.0,16,-99.99,,,-99.99,16.0,meteohub,2013-10-14 11:37:00,
2013-10-14 07:42:00,73.0,24.3,-100.00,East,86,2.0,-999.0,16,-99.99,,,-99.99,21.0,meteohub,2013-10-14 11:42:00,
2013-10-14 07:47:00,73.2,24.3,-100.00,East,86,0.0,-999.0,16,-99.99,,,-99.99,28.0,meteohub,2013-10-14 11:47:00,
2013-10-14 07:52:00,73.6,24.6,-100.00,East,86,0.0,-999.0,16,-99.99,,,-99.99,49.0,meteohub,2013-10-14 11:52:00,
2013-10-14 07:57:00,73.8,24.8,-100.00,East,86,0.0,-999.0,16,-99.99,,,-99.99,35.0,meteohub,2013-10-14 11:57:00,
2013-10-14 08:02:00,73.9,23.4,-100.00,East,86,0.0,-999.0,15,-99.99,,,-99.99,37.0,meteohub,2013-10-14 12:02:00,
2013-10-14 08:07:00,74.1,23.5,-100.00,East,86,0.0,-999.0,15,-99.99,,,-99.99,116.0,meteohub,2013-10-14 12:07:00,
2013-10-14 08:12:00,74.7,23.9,-100.00,East,86,2.0,-999.0,15,-99.99,,,-99.99,141.0,meteohub,2013-10-14 12:12:00,
2013-10-14 08:17:00,75.0,22.6,-100.00,East,86,0.0,-999.0,14,-99.99,,,-99.99,46.0,meteohub,2013-10-14 12:17:00,
2013-10-14 08:22:00,75.4,22.8,-100.00,East,84,0.0,-999.0,14,-99.99,,,-99.99,44.0,meteohub,2013-10-14 12:22:00,
2013-10-14 08:27:00,75.7,23.2,-100.00,East,85,0.0,-999.0,14,-99.99,,,-99.99,199.0,meteohub,2013-10-14 12:27:00,
2013-10-14 08:32:00,76.5,23.7,-100.00,East,85,1.0,-999.0,14,-99.99,,,-99.99,218.0,meteohub,2013-10-14 12:32:00,
2013-10-14 08:37:00,76.8,24.1,-100.00,East,83,3.0,-999.0,14,-99.99,,,-99.99,237.0,meteohub,2013-10-14 12:37:00,
2013-10-14 08:42:00,77.5,24.6,-100.00,East,82,2.0,-999.0,14,-99.99,,,-99.99,255.0,meteohub,2013-10-14 12:42:00,
2013-10-14 08:52:00,78.3,31.3,-100.00,ENE,67,2.0,-999.0,18,-99.99,,,-99.99,297.0,meteohub,2013-10-14 12:52:00,
2013-10-14 08:57:00,78.6,34.2,-100.00,NE,46,3.0,-999.0,20,-99.99,,,-99.99,315.0,meteohub,2013-10-14 12:57:00,
2013-10-14 09:02:00,78.6,36.7,-100.00,North,0,5.0,-999.0,22,-99.99,,,-99.99,330.0,meteohub,2013-10-14 13:02:00,
2013-10-14 09:07:00,78.6,38.8,-100.00,North,355,4.0,-999.0,24,-99.99,,,-99.99,343.0,meteohub,2013-10-14 13:07:00,
2013-10-14 09:12:00,79.0,41.2,-100.00,NNW,346,3.0,-999.0,26,-99.99,,,-99.99,364.0,meteohub,2013-10-14 13:12:00,
2013-10-14 09:17:00,79.2,43.2,-100.00,NNW,338,5.0,-999.0,28,-99.99,,,-99.99,383.0,meteohub,2013-10-14 13:17:00,
2013-10-14 09:22:00,79.2,44.2,-100.00,NNW,338,4.0,-999.0,29,-99.99,,,-99.99,401.0,meteohub,2013-10-14 13:22:00,
2013-10-14 09:27:00,79.3,46.0,-100.00,NNW,336,3.0,-999.0,31,-99.99,,,-99.99,417.0,meteohub,2013-10-14 13:27:00,
2013-10-14 09:32:00,79.7,48.9,-100.00,NNW,336,2.0,-999.0,34,-99.99,,,-99.99,436.0,meteohub,2013-10-14 13:32:00,
2013-10-14 09:37:00,80.2,51.6,-100.00,NNW,336,2.0,-999.0,37,-99.99,,,-99.99,455.0,meteohub,2013-10-14 13:37:00,
2013-10-14 09:42:00,80.4,54.5,-100.00,NNW,336,5.0,-999.0,41,-99.99,,,-99.99,471.0,meteohub,2013-10-14 13:42:00,
2013-10-14 09:47:00,81.0,57.0,-100.00,NNW,336,0.0,-999.0,44,-99.99,,,-99.99,487.0,meteohub,2013-10-14 13:47:00,
2013-10-14 09:52:00,81.1,57.7,-100.00,NNW,337,2.0,-999.0,45,-99.99,,,-99.99,504.0,meteohub,2013-10-14 13:52:00,
2013-10-14 09:57:00,81.1,59.0,-100.00,NNW,341,1.0,-999.0,47,-99.99,,,-99.99,520.0,meteohub,2013-10-14 13:57:00,
2013-10-14 10:02:00,81.3,59.2,-100.00,NNW,342,2.0,-999.0,47,-99.99,,,-99.99,536.0,meteohub,2013-10-14 14:02:00,
2013-10-14 10:07:00,82.0,59.9,-100.00,NNW,342,2.0,-999.0,47,-99.99,,,-99.99,554.0,meteohub,2013-10-14 14:07:00,
2013-10-14 10:12:00,83.1,63.1,-100.00,NNW,342,0.0,-999.0,51,-99.99,,,-99.99,571.0,meteohub,2013-10-14 14:12:00,
2013-10-14 10:17:00,83.7,64.2,-100.00,NNW,341,2.0,-999.0,52,-99.99,,,-99.99,603.0,meteohub,2013-10-14 14:17:00,
2013-10-14 10:22:00,83.8,64.4,-100.00,NNW,342,0.0,-999.0,52,-99.99,,,-99.99,647.0,meteohub,2013-10-14 14:22:00,
2013-10-14 10:27:00,84.4,65.3,-100.00,NNW,342,0.0,-999.0,53,-99.99,,,-99.99,721.0,meteohub,2013-10-14 14:27:00,
2013-10-14 10:32:00,84.4,65.3,-100.00,NNW,343,0.0,-999.0,53,-99.99,,,-99.99,817.0,meteohub,2013-10-14 14:32:00,
2013-10-14 10:37:00,84.4,65.8,-100.00,NNW,342,2.0,-999.0,54,-99.99,,,-99.99,283.0,meteohub,2013-10-14 14:37:00,
2013-10-14 10:42:00,84.4,65.8,-100.00,NNW,342,0.0,-999.0,54,-99.99,,,-99.99,872.0,meteohub,2013-10-14 14:42:00,
2013-10-14 10:47:00,84.6,66.0,-100.00,NNW,342,0.0,-999.0,54,-99.99,,,-99.99,276.0,meteohub,2013-10-14 14:47:00,
2013-10-14 10:52:00,84.9,65.8,-100.00,NNW,344,0.0,-999.0,53,-99.99,,,-99.99,891.0,meteohub,2013-10-14 14:52:00,
2013-10-14 10:57:00,85.8,67.3,-100.00,NNW,342,8.0,-999.0,54,-99.99,,,-99.99,846.0,meteohub,2013-10-14 14:57:00,
2013-10-14 11:02:00,86.5,68.4,-100.00,NNW,342,0.0,-999.0,55,-99.99,,,-99.99,911.0,meteohub,2013-10-14 15:02:00,
2013-10-14 11:07:00,86.5,68.4,-100.00,NNW,345,2.0,-999.0,55,-99.99,,,-99.99,255.0,meteohub,2013-10-14 15:07:00,
2013-10-14 11:12:00,86.7,68.5,-100.00,NNW,345,0.0,-999.0,55,-99.99,,,-99.99,264.0,meteohub,2013-10-14 15:12:00,
2013-10-14 11:17:00,86.7,68.5,-100.00,NNW,346,2.0,-999.0,55,-99.99,,,-99.99,427.0,meteohub,2013-10-14 15:17:00,
2013-10-14 11:22:00,87.1,68.9,-100.00,NNW,346,3.0,-999.0,55,-99.99,,,-99.99,940.0,meteohub,2013-10-14 15:22:00,
2013-10-14 11:32:00,87.3,69.6,-100.00,NNW,345,3.0,-999.0,56,-99.99,,,-99.99,225.0,meteohub,2013-10-14 15:32:00,
2013-10-14 11:37:00,86.5,68.4,-100.00,West,261,0.0,-999.0,55,-99.99,,,-99.99,234.0,meteohub,2013-10-14 15:37:00,
2013-10-14 11:42:00,86.4,68.7,-100.00,North,350,3.0,-999.0,56,-99.99,,,-99.99,844.0,meteohub,2013-10-14 15:42:00,
2013-10-14 11:47:00,86.9,68.7,-100.00,NW,317,2.0,-999.0,55,-99.99,,,-99.99,870.0,meteohub,2013-10-14 15:47:00,
2013-10-14 11:57:00,87.1,69.4,-100.00,East,90,0.0,-999.0,56,-99.99,,,-99.99,826.0,meteohub,2013-10-14 15:57:00,
2013-10-14 12:02:00,87.6,69.4,-100.00,SE,133,0.0,-999.0,55,-99.99,,,-99.99,840.0,meteohub,2013-10-14 16:02:00,
2013-10-14 12:07:00,87.4,69.3,-100.00,WSW,253,0.0,-999.0,55,-99.99,,,-99.99,837.0,meteohub,2013-10-14 16:07:00,
2013-10-14 12:12:00,87.4,69.8,-100.00,NW,304,0.0,-999.0,56,-99.99,,,-99.99,833.0,meteohub,2013-10-14 16:12:00,
2013-10-14 12:17:00,87.8,70.2,-100.00,North,5,3.0,-999.0,56,-99.99,,,-99.99,844.0,meteohub,2013-10-14 16:17:00,
2013-10-14 12:22:00,88.2,70.0,-100.00,NNW,338,3.0,-999.0,55,-99.99,,,-99.99,851.0,meteohub,2013-10-14 16:22:00,
2013-10-14 12:27:00,87.4,69.3,-100.00,WNW,299,5.0,-999.0,55,-99.99,,,-99.99,847.0,meteohub,2013-10-14 16:27:00,
2013-10-14 12:32:00,87.3,69.1,-100.00,NNW,340,2.0,-999.0,55,-99.99,,,-99.99,851.0,meteohub,2013-10-14 16:32:00,
2013-10-14 12:37:00,87.3,69.1,-100.00,SW,233,5.0,-999.0,55,-99.99,,,-99.99,851.0,meteohub,2013-10-14 16:37:00,
2013-10-14 12:42:00,87.1,69.4,-100.00,NW,306,0.0,-999.0,56,-99.99,,,-99.99,851.0,meteohub,2013-10-14 16:42:00,
2013-10-14 12:47:00,87.1,68.9,-100.00,NW,321,3.0,-999.0,55,-99.99,,,-99.99,851.0,meteohub,2013-10-14 16:47:00,
2013-10-14 12:52:00,87.3,69.6,-100.00,NW,317,2.0,-999.0,56,-99.99,,,-99.99,853.0,meteohub,2013-10-14 16:52:00,
2013-10-14 12:57:00,87.3,69.6,-100.00,NNW,327,4.0,-999.0,56,-99.99,,,-99.99,847.0,meteohub,2013-10-14 16:57:00,
2013-10-14 13:02:00,87.4,69.3,-100.00,NW,322,3.0,-999.0,55,-99.99,,,-99.99,847.0,meteohub,2013-10-14 17:02:00,
2013-10-14 13:07:00,87.3,69.1,-100.00,NW,305,6.0,-999.0,55,-99.99,,,-99.99,842.0,meteohub,2013-10-14 17:07:00,
2013-10-14 13:12:00,86.7,68.5,-100.00,NW,311,5.0,-999.0,55,-99.99,,,-99.99,844.0,meteohub,2013-10-14 17:12:00,
2013-10-14 13:17:00,86.7,68.5,-100.00,NW,319,5.0,-999.0,55,-99.99,,,-99.99,840.0,meteohub,2013-10-14 17:17:00,
2013-10-14 13:22:00,87.1,69.4,-100.00,NNW,338,6.0,-999.0,56,-99.99,,,-99.99,840.0,meteohub,2013-10-14 17:22:00,
2013-10-14 13:27:00,87.1,69.4,-100.00,North,355,7.0,-999.0,56,-99.99,,,-99.99,838.0,meteohub,2013-10-14 17:27:00,
2013-10-14 13:32:00,87.1,69.4,-100.00,NE,46,3.0,-999.0,56,-99.99,,,-99.99,837.0,meteohub,2013-10-14 17:32:00,
2013-10-14 13:37:00,87.3,69.1,-100.00,WNW,298,5.0,-999.0,55,-99.99,,,-99.99,835.0,meteohub,2013-10-14 17:37:00,
2013-10-14 13:42:00,87.3,69.1,-100.00,NW,317,4.0,-999.0,55,-99.99,,,-99.99,835.0,meteohub,2013-10-14 17:42:00,
2013-10-14 13:47:00,87.4,68.7,-100.00,NE,55,4.0,-999.0,54,-99.99,,,-99.99,826.0,meteohub,2013-10-14 17:47:00,
2013-10-14 13:52:00,87.4,68.7,-100.00,West,273,0.0,-999.0,54,-99.99,,,-99.99,821.0,meteohub,2013-10-14 17:52:00,
2013-10-14 13:57:00,87.8,69.6,-100.00,SSW,209,3.0,-999.0,55,-99.99,,,-99.99,817.0,meteohub,2013-10-14 17:57:00,
2013-10-14 14:02:00,87.8,69.1,-100.00,WNW,302,2.0,-999.0,54,-99.99,,,-99.99,809.0,meteohub,2013-10-14 18:02:00,
2013-10-14 14:07:00,87.8,69.1,-100.00,WNW,292,3.0,-999.0,54,-99.99,,,-99.99,805.0,meteohub,2013-10-14 18:07:00,
2013-10-14 14:12:00,87.8,69.6,-100.00,North,355,3.0,-999.0,55,-99.99,,,-99.99,796.0,meteohub,2013-10-14 18:12:00,
2013-10-14 14:17:00,88.3,70.2,-100.00,NW,309,3.0,-999.0,55,-99.99,,,-99.99,784.0,meteohub,2013-10-14 18:17:00,
2013-10-14 14:22:00,88.2,70.0,-100.00,North,5,1.0,-999.0,55,-99.99,,,-99.99,780.0,meteohub,2013-10-14 18:22:00,
2013-10-14 14:27:00,88.2,70.0,-100.00,West,279,0.0,-999.0,55,-99.99,,,-99.99,770.0,meteohub,2013-10-14 18:27:00,
2013-10-14 14:32:00,88.5,70.3,-100.00,SW,229,2.0,-999.0,55,-99.99,,,-99.99,761.0,meteohub,2013-10-14 18:32:00,
2013-10-14 14:37:00,88.7,70.5,-100.00,NNW,330,3.0,-999.0,55,-99.99,,,-99.99,752.0,meteohub,2013-10-14 18:37:00,
2013-10-14 14:42:00,88.9,70.7,-100.00,NW,319,3.0,-999.0,55,-99.99,,,-99.99,744.0,meteohub,2013-10-14 18:42:00,
2013-10-14 14:47:00,88.3,70.2,-100.00,SSW,196,6.0,-999.0,55,-99.99,,,-99.99,749.0,meteohub,2013-10-14 18:47:00,
2013-10-14 14:52:00,87.3,69.6,-100.00,North,355,0.0,-999.0,56,-99.99,,,-99.99,735.0,meteohub,2013-10-14 18:52:00,
2013-10-14 14:57:00,87.6,70.0,-100.00,NW,317,2.0,-999.0,56,-99.99,,,-99.99,705.0,meteohub,2013-10-14 18:57:00,
2013-10-14 15:02:00,88.0,69.8,-100.00,North,0,4.0,-999.0,55,-99.99,,,-99.99,707.0,meteohub,2013-10-14 19:02:00,
2013-10-14 15:07:00,88.0,69.8,-100.00,North,5,2.0,-999.0,55,-99.99,,,-99.99,694.0,meteohub,2013-10-14 19:07:00,
2013-10-14 15:12:00,88.2,70.0,-100.00,North,5,3.0,-999.0,55,-99.99,,,-99.99,682.0,meteohub,2013-10-14 19:12:00,
2013-10-14 15:17:00,88.5,70.3,-100.00,SSE,153,1.0,-999.0,55,-99.99,,,-99.99,670.0,meteohub,2013-10-14 19:17:00,
2013-10-14 15:22:00,88.3,69.6,-100.00,WNW,302,0.0,-999.0,54,-99.99,,,-99.99,657.0,meteohub,2013-10-14 19:22:00,
2013-10-14 15:27:00,88.5,70.3,-100.00,NW,306,5.0,-999.0,55,-99.99,,,-99.99,642.0,meteohub,2013-10-14 19:27:00,
2013-10-14 15:32:00,88.3,69.6,-100.00,WNW,295,2.0,-999.0,54,-99.99,,,-99.99,631.0,meteohub,2013-10-14 19:32:00,
2013-10-14 15:37:00,88.2,70.0,-100.00,NW,326,1.0,-999.0,55,-99.99,,,-99.99,617.0,meteohub,2013-10-14 19:37:00,
2013-10-14 15:42:00,88.3,70.2,-100.00,West,268,0.0,-999.0,55,-99.99,,,-99.99,599.0,meteohub,2013-10-14 19:42:00,
2013-10-14 15:47:00,88.2,70.5,-100.00,NW,323,3.0,-999.0,56,-99.99,,,-99.99,589.0,meteohub,2013-10-14 19:47:00,
2013-10-14 15:52:00,87.6,69.4,-100.00,ESE,115,2.0,-999.0,55,-99.99,,,-99.99,573.0,meteohub,2013-10-14 19:52:00,
2013-10-14 15:57:00,87.4,69.8,-100.00,West,281,0.0,-999.0,56,-99.99,,,-99.99,561.0,meteohub,2013-10-14 19:57:00,
2013-10-14 16:02:00,87.4,69.8,-100.00,SSE,150,1.0,-999.0,56,-99.99,,,-99.99,547.0,meteohub,2013-10-14 20:02:00,
2013-10-14 16:07:00,87.8,70.2,-100.00,NW,323,1.0,-999.0,56,-99.99,,,-99.99,527.0,meteohub,2013-10-14 20:07:00,
2013-10-14 16:12:00,87.6,70.0,-100.00,NW,322,1.0,-999.0,56,-99.99,,,-99.99,519.0,meteohub,2013-10-14 20:12:00,
2013-10-14 16:17:00,88.0,70.3,-100.00,North,5,6.0,-999.0,56,-99.99,,,-99.99,497.0,meteohub,2013-10-14 20:17:00,
2013-10-14 16:22:00,87.8,69.6,-100.00,NW,325,4.0,-999.0,55,-99.99,,,-99.99,478.0,meteohub,2013-10-14 20:22:00,
2013-10-14 16:27:00,87.6,69.4,-100.00,NNW,341,1.0,-999.0,55,-99.99,,,-99.99,459.0,meteohub,2013-10-14 20:27:00,
2013-10-14 16:32:00,87.6,69.4,-100.00,SE,126,2.0,-999.0,55,-99.99,,,-99.99,446.0,meteohub,2013-10-14 20:32:00,
2013-10-14 16:37:00,87.4,69.3,-100.00,NE,40,3.0,-999.0,55,-99.99,,,-99.99,431.0,meteohub,2013-10-14 20:37:00,
2013-10-14 16:42:00,87.1,69.4,-100.00,NW,311,1.0,-999.0,56,-99.99,,,-99.99,413.0,meteohub,2013-10-14 20:42:00,
2013-10-14 16:47:00,87.1,69.4,-100.00,WNW,299,1.0,-999.0,56,-99.99,,,-99.99,396.0,meteohub,2013-10-14 20:47:00,
2013-10-14 16:52:00,86.5,68.9,-100.00,West,278,0.0,-999.0,56,-99.99,,,-99.99,376.0,meteohub,2013-10-14 20:52:00,
2013-10-14 16:57:00,86.4,69.3,-100.00,NW,316,2.0,-999.0,57,-99.99,,,-99.99,357.0,meteohub,2013-10-14 20:57:00,
2013-10-14 17:02:00,86.4,68.7,-100.00,NNW,346,2.0,-999.0,56,-99.99,,,-99.99,336.0,meteohub,2013-10-14 21:02:00,
2013-10-14 17:07:00,86.2,69.1,-100.00,NW,307,6.0,-999.0,57,-99.99,,,-99.99,323.0,meteohub,2013-10-14 21:07:00,
2013-10-14 17:12:00,85.6,68.7,-100.00,NNW,344,2.0,-999.0,57,-99.99,,,-99.99,302.0,meteohub,2013-10-14 21:12:00,
2013-10-14 17:17:00,85.5,68.5,-100.00,North,351,5.0,-999.0,57,-99.99,,,-99.99,281.0,meteohub,2013-10-14 21:17:00,
2013-10-14 17:22:00,85.5,68.5,-100.00,NW,326,4.0,-999.0,57,-99.99,,,-99.99,265.0,meteohub,2013-10-14 21:22:00,
2013-10-14 17:27:00,85.5,68.5,-100.00,North,355,6.0,-999.0,57,-99.99,,,-99.99,241.0,meteohub,2013-10-14 21:27:00,
2013-10-14 17:32:00,84.9,68.0,-100.00,NW,317,3.0,-999.0,57,-99.99,,,-99.99,225.0,meteohub,2013-10-14 21:32:00,
2013-10-14 17:37:00,84.9,68.0,-100.00,NW,304,0.0,-999.0,57,-99.99,,,-99.99,207.0,meteohub,2013-10-14 21:37:00,
2013-10-14 17:42:00,85.3,68.4,-100.00,NNW,336,4.0,-999.0,57,-99.99,,,-99.99,186.0,meteohub,2013-10-14 21:42:00,
2013-10-14 17:47:00,84.9,68.0,-100.00,ENE,63,2.0,-999.0,57,-99.99,,,-99.99,165.0,meteohub,2013-10-14 21:47:00,
2013-10-14 17:52:00,84.9,68.0,-100.00,North,355,7.0,-999.0,57,-99.99,,,-99.99,142.0,meteohub,2013-10-14 21:52:00,
2013-10-14 17:57:00,84.7,67.8,-100.00,NNW,327,1.0,-999.0,57,-99.99,,,-99.99,121.0,meteohub,2013-10-14 21:57:00,
2013-10-14 18:02:00,84.4,67.5,-100.00,NNW,327,0.0,-999.0,57,-99.99,,,-99.99,100.0,meteohub,2013-10-14 22:02:00,
2013-10-14 18:07:00,83.8,67.5,-100.00,NE,45,4.0,-999.0,58,-99.99,,,-99.99,83.0,meteohub,2013-10-14 22:07:00,
2013-10-14 18:12:00,83.5,66.6,-100.00,NW,324,3.0,-999.0,57,-99.99,,,-99.99,60.0,meteohub,2013-10-14 22:12:00,
2013-10-14 18:17:00,83.3,66.6,-100.00,NW,311,2.0,-999.0,57,-99.99,,,-99.99,40.0,meteohub,2013-10-14 22:17:00,
2013-10-14 18:22:00,82.9,66.2,-100.00,NW,326,0.0,-999.0,57,-99.99,,,-99.99,33.0,meteohub,2013-10-14 22:22:00,
2013-10-14 18:32:00,82.2,63.9,-100.00,WNW,299,5.0,-999.0,54,-99.99,,,-99.99,18.0,meteohub,2013-10-14 22:32:00,
2013-10-14 18:37:00,81.9,63.0,-100.00,NNW,329,1.0,-999.0,53,-99.99,,,-99.99,12.0,meteohub,2013-10-14 22:37:00,
2013-10-14 18:42:00,81.3,61.0,-100.00,NW,326,3.0,-999.0,50,-99.99,,,-99.99,11.0,meteohub,2013-10-14 22:42:00,
2013-10-14 18:47:00,81.0,58.8,-100.00,WNW,294,4.0,-999.0,47,-99.99,,,-99.99,7.0,meteohub,2013-10-14 22:47:00,
2013-10-14 18:52:00,80.4,56.5,-100.00,West,281,1.0,-999.0,44,-99.99,,,-99.99,5.0,meteohub,2013-10-14 22:52:00,
2013-10-14 18:57:00,80.2,56.3,-100.00,NNE,15,0.0,-999.0,44,-99.99,,,-99.99,0.0,meteohub,2013-10-14 22:57:00,
2013-10-14 19:02:00,80.1,55.6,-100.00,WNW,296,0.0,-999.0,43,-99.99,,,-99.99,0.0,meteohub,2013-10-14 23:02:00,
2013-10-14 19:07:00,79.9,55.9,-100.00,North,5,2.0,-999.0,44,-99.99,,,-99.99,0.0,meteohub,2013-10-14 23:07:00,
2013-10-14 19:12:00,79.9,55.9,-100.00,NW,321,1.0,-999.0,44,-99.99,,,-99.99,0.0,meteohub,2013-10-14 23:12:00,
2013-10-14 19:17:00,79.7,55.2,-100.00,WSW,253,0.0,-999.0,43,-99.99,,,-99.99,0.0,meteohub,2013-10-14 23:17:00,
2013-10-14 19:22:00,79.5,54.5,-100.00,WNW,299,0.0,-999.0,42,-99.99,,,-99.99,0.0,meteohub,2013-10-14 23:22:00,
2013-10-14 19:27:00,79.3,53.6,-100.00,NW,315,1.0,-999.0,41,-99.99,,,-99.99,0.0,meteohub,2013-10-14 23:27:00,
2013-10-14 19:32:00,79.3,54.9,-100.00,ENE,60,0.0,-999.0,43,-99.99,,,-99.99,0.0,meteohub,2013-10-14 23:32:00,
2013-10-14 19:37:00,79.3,54.9,-100.00,NNW,333,0.0,-999.0,43,-99.99,,,-99.99,0.0,meteohub,2013-10-14 23:37:00,
2013-10-14 19:42:00,79.3,54.9,-100.00,West,269,0.0,-999.0,43,-99.99,,,-99.99,0.0,meteohub,2013-10-14 23:42:00,
2013-10-14 19:47:00,79.2,54.1,-100.00,WSW,240,0.0,-999.0,42,-99.99,,,-99.99,0.0,meteohub,2013-10-14 23:47:00,
2013-10-14 19:52:00,79.2,54.7,-100.00,SE,140,0.0,-999.0,43,-99.99,,,-99.99,0.0,meteohub,2013-10-14 23:52:00,
2013-10-14 19:57:00,79.2,55.4,-100.00,NW,315,2.0,-999.0,44,-99.99,,,-99.99,0.0,meteohub,2013-10-14 23:57:00,
2013-10-14 20:02:00,79.0,54.0,-100.00,WNW,294,0.0,-999.0,42,-99.99,,,-99.99,0.0,meteohub,2013-10-15 00:02:00,
2013-10-14 20:07:00,79.0,54.0,-100.00,NW,311,0.0,-999.0,42,-99.99,,,-99.99,0.0,meteohub,2013-10-15 00:07:00,
2013-10-14 20:12:00,79.0,54.5,-100.00,WSW,257,0.0,-999.0,43,-99.99,,,-99.99,0.0,meteohub,2013-10-15 00:12:00,
2013-10-14 20:17:00,79.0,54.5,-100.00,WSW,254,0.0,-999.0,43,-99.99,,,-99.99,0.0,meteohub,2013-10-15 00:17:00,
2013-10-14 20:22:00,79.0,54.5,-100.00,NNE,18,0.0,-999.0,43,-99.99,,,-99.99,0.0,meteohub,2013-10-15 00:22:00,
2013-10-14 20:27:00,79.0,53.2,-100.00,WNW,296,0.0,-999.0,41,-99.99,,,-99.99,0.0,meteohub,2013-10-15 00:27:00,
2013-10-14 20:32:00,78.8,52.5,-100.00,NNW,346,0.0,-999.0,40,-99.99,,,-99.99,0.0,meteohub,2013-10-15 00:32:00,
2013-10-14 20:37:00,78.6,52.3,-100.00,NNE,28,0.0,-999.0,40,-99.99,,,-99.99,0.0,meteohub,2013-10-15 00:37:00,
2013-10-14 20:42:00,78.6,52.3,-100.00,NNE,14,0.0,-999.0,40,-99.99,,,-99.99,0.0,meteohub,2013-10-15 00:42:00,
2013-10-14 20:47:00,78.6,51.6,-100.00,NNW,333,4.0,-999.0,39,-99.99,,,-99.99,0.0,meteohub,2013-10-15 00:47:00,
2013-10-14 20:52:00,78.6,50.9,-100.00,North,0,0.0,-999.0,38,-99.99,,,-99.99,0.0,meteohub,2013-10-15 00:52:00,
2013-10-14 20:57:00,78.6,50.9,-100.00,NW,318,0.0,-999.0,38,-99.99,,,-99.99,0.0,meteohub,2013-10-15 00:57:00,
2013-10-14 21:02:00,78.6,50.9,-100.00,NNE,15,2.0,-999.0,38,-99.99,,,-99.99,0.0,meteohub,2013-10-15 01:02:00,
2013-10-14 21:07:00,78.6,50.2,-100.00,NNW,338,0.0,-999.0,37,-99.99,,,-99.99,0.0,meteohub,2013-10-15 01:07:00,
2013-10-14 21:12:00,78.6,50.2,-100.00,NE,49,0.0,-999.0,37,-99.99,,,-99.99,0.0,meteohub,2013-10-15 01:12:00,
2013-10-14 21:17:00,78.6,50.9,-100.00,NNW,331,4.0,-999.0,38,-99.99,,,-99.99,0.0,meteohub,2013-10-15 01:17:00,
2013-10-14 21:22:00,78.6,50.2,-100.00,NW,323,0.0,-999.0,37,-99.99,,,-99.99,0.0,meteohub,2013-10-15 01:22:00,
2013-10-14 21:27:00,78.6,50.2,-100.00,NNW,337,1.0,-999.0,37,-99.99,,,-99.99,0.0,meteohub,2013-10-15 01:27:00,
2013-10-14 21:32:00,78.6,50.9,-100.00,WSW,252,0.0,-999.0,38,-99.99,,,-99.99,0.0,meteohub,2013-10-15 01:32:00,
2013-10-14 21:37:00,78.6,50.9,-100.00,NW,304,0.0,-999.0,38,-99.99,,,-99.99,0.0,meteohub,2013-10-15 01:37:00,
2013-10-14 21:47:00,78.4,50.0,-100.00,North,0,0.0,-999.0,37,-99.99,,,-99.99,0.0,meteohub,2013-10-15 01:47:00,
2013-10-14 21:57:00,78.4,50.0,-100.00,NW,315,0.0,-999.0,37,-99.99,,,-99.99,0.0,meteohub,2013-10-15 01:57:00,
2013-10-14 22:02:00,78.4,49.3,-100.00,North,349,0.0,-999.0,36,-99.99,,,-99.99,0.0,meteohub,2013-10-15 02:02:00,
2013-10-14 22:07:00,78.4,49.3,-100.00,NNW,333,0.0,-999.0,36,-99.99,,,-99.99,0.0,meteohub,2013-10-15 02:07:00,
2013-10-14 22:12:00,78.4,49.3,-100.00,North,355,0.0,-999.0,36,-99.99,,,-99.99,0.0,meteohub,2013-10-15 02:12:00,
2013-10-14 22:17:00,78.3,49.1,-100.00,WNW,299,0.0,-999.0,36,-99.99,,,-99.99,0.0,meteohub,2013-10-15 02:17:00,
2013-10-14 22:27:00,78.3,50.5,-100.00,South,174,0.0,-999.0,38,-99.99,,,-99.99,0.0,meteohub,2013-10-15 02:27:00,
2013-10-14 22:32:00,78.3,50.5,-100.00,SSE,165,0.0,-999.0,38,-99.99,,,-99.99,0.0,meteohub,2013-10-15 02:32:00,
2013-10-14 22:37:00,78.3,49.8,-100.00,SSE,166,0.0,-999.0,37,-99.99,,,-99.99,0.0,meteohub,2013-10-15 02:37:00,
2013-10-14 22:42:00,78.3,49.1,-100.00,SSE,165,0.0,-999.0,36,-99.99,,,-99.99,0.0,meteohub,2013-10-15 02:42:00,
2013-10-14 22:47:00,78.1,51.1,-100.00,SSE,163,0.0,-999.0,39,-99.99,,,-99.99,0.0,meteohub,2013-10-15 02:47:00,
2013-10-14 22:52:00,78.1,51.8,-100.00,SSE,155,0.0,-999.0,40,-99.99,,,-99.99,0.0,meteohub,2013-10-15 02:52:00,
2013-10-14 22:57:00,78.1,51.8,-100.00,SSE,153,0.0,-999.0,40,-99.99,,,-99.99,0.0,meteohub,2013-10-15 02:57:00,
2013-10-14 23:02:00,78.1,52.5,-100.00,SSE,152,0.0,-999.0,41,-99.99,,,-99.99,0.0,meteohub,2013-10-15 03:02:00,
2013-10-14 23:07:00,78.1,53.1,-100.00,SSE,149,0.0,-999.0,42,-99.99,,,-99.99,0.0,meteohub,2013-10-15 03:07:00,
2013-10-14 23:12:00,77.9,53.6,-100.00,SSE,149,0.0,-999.0,43,-99.99,,,-99.99,0.0,meteohub,2013-10-15 03:12:00,
2013-10-14 23:17:00,77.7,53.4,-100.00,SE,146,0.0,-999.0,43,-99.99,,,-99.99,0.0,meteohub,2013-10-15 03:17:00,
2013-10-14 23:22:00,77.9,53.6,-100.00,East,80,0.0,-999.0,43,-99.99,,,-99.99,0.0,meteohub,2013-10-15 03:22:00,
2013-10-14 23:27:00,77.9,52.3,-100.00,East,80,0.0,-999.0,41,-99.99,,,-99.99,0.0,meteohub,2013-10-15 03:27:00,
2013-10-14 23:32:00,77.7,51.4,-100.00,ESE,119,0.0,-999.0,40,-99.99,,,-99.99,0.0,meteohub,2013-10-15 03:32:00,
2013-10-14 23:37:00,77.7,51.4,-100.00,South,188,0.0,-999.0,40,-99.99,,,-99.99,0.0,meteohub,2013-10-15 03:37:00,
2013-10-14 23:42:00,77.7,50.7,-100.00,South,186,0.0,-999.0,39,-99.99,,,-99.99,0.0,meteohub,2013-10-15 03:42:00,
2013-10-14 23:47:00,77.7,50.7,-100.00,SSW,207,0.0,-999.0,39,-99.99,,,-99.99,0.0,meteohub,2013-10-15 03:47:00,
2013-10-14 23:52:00,77.7,50.0,-100.00,East,83,0.0,-999.0,38,-99.99,,,-99.99,0.0,meteohub,2013-10-15 03:52:00,
2013-10-14 23:57:00,77.7,50.0,-100.00,East,80,0.0,-999.0,38,-99.99,,,-99.99,0.0,meteohub,2013-10-15 03:57:00,